{"data":{"norad_id":63721,"intl_designator":"2025-087AA","name":"STARLINK-33774","alt_names":[],"object_type":"PAYLOAD","status":"ACTIVE","operator":null,"country":"US","launch_date":"2025-04-28","launch_site_code":"AFWTR","launch_vehicle":null,"mission":null,"orbit_class":"UNKNOWN","rcs_meters":null,"size_class":null,"mass_kg":null,"dimensions":null,"purposes":["comms"],"wikipedia_slug":null,"has_3d_model":false,"image_url":null,"decayed_at":null,"tle_current":{"epoch":"2026-09-20T13:15:28.509984Z","epoch_age_seconds":148538,"freshness":"FRESH","line1":"1 63721U 25087AA  26263.55241331  .00016024  00000+0  52669-3 0  9997","line2":"2 63721  53.1614  33.0443 0002074  81.1721 278.9516 15.31720734 79053","mean_motion":15.31720734,"eccentricity":0.0002074,"inclination_deg":53.1614,"raan_deg":33.0443,"arg_perigee_deg":81.1721,"mean_anomaly_deg":278.9516,"bstar":0.00052669,"rev_number":7905,"period_min":94.011915360023,"perigee_km":469.25774467757,"apogee_km":472.09863321795,"semimajor_km":6848.8151889478,"source":"CELESTRAK","updated_at":"2026-09-21T09:00:35.091705Z"}}}